Zurück zum Katalog

STARLINK-34991

AktivKommunikationSSO
NORAD 65446·PAYLOAD·🇺🇸 United States

Gestartet Sep 3, 2025 von Vandenberg Space Force Base

Loading…

Nächste Überflüge (nächste 24 Stunden)

TLE

AktuellSource: CelesTrak SupGP

Epoche: Sep 15, 2026, 02:54 UTC

1 65446C 25194N   26258.12131944 -.00019442  00000+0 -60341-3 0  2580
2 65446  97.2841 107.7547 0002008  97.0659  45.9006 15.33453661    17

Verfolge STARLINK-34991 in Echtzeit mit AllMySat

Download on the App Store